[[{"header":{"parameterUnit":"m.s-1","parameterCategory":1,"la1":30.2991,"la2":30.254,"lo1":-89.0895,"lo2":-89.0444,"dy":0.0017,"dx":0.0017,"nx":28,"ny":28,"refTime":"2025-03-10T03:00:00:Z","depth":0,"parameterNumber":2,"parameterNumberName":"U-component_of_WINDS"},"data":[0,0,0,0,0,0,0,0,0,0,0,0,0,0,0,0,0,0,0,0,0,0,0,0,0,0,0,0,0,0,0,0,0,0,0,0,0,0,0,0,0,0,0,0,0,0,0,0,0,0,0,0,0,0,0,0,0,0,0.5055,0.5057,0,0.5206,0.5208,0.5209,0.5281,0.5281,0.5281,0.528,0.5437,0.5441,0.5445,0,0,0,0,0,0,0,0,0,0,0,0,0,0.4831,0.4835,0.5055,0.5057,0.5059,0.5206,0.5208,0.521,0.5281,0.5281,0.5281,0.528,0.5435,0.544,0.5446,0,0,0,0,0,0,0,0,0,0,0,0,0,0.495,0.4836,0.5055,0.5112,0.5119,0.5205,0.5208,0.521,0.5281,0.5281,0.528,0.528,0.5434,0.544,0.5446,0.5488,0,0,0.5466,0.5469,0,0,0,0,0,0,0,0,0.4943,0.4958,0.5102,0.5108,0.5116,0.5224,0.5186,0.5304,0.5281,0.5219,0.528,0.528,0.5366,0.5378,0.5407,0.5496,0.5502,0.5466,0.547,0.5473,0.5475,0,0,0,0,0,0,0,0.4935,0.4952,0.5115,0.5104,0.5112,0.5131,0.5148,0.5209,0.5292,0.5225,0.523,0.5247,0.537,0.5401,0.5411,0.5505,0.5466,0.5472,0.5476,0.5478,0.5636,0.5637,0,0,0,0,0,0,0.4917,0.4945,0.511,0.512,0.5027,0.5135,0.5154,0.519,0.5291,0.5307,0.5247,0.525,0.539,0.5404,0.5417,0.5473,0.5473,0.5479,0.5482,0.5636,0.5636,0.5637,0,0,0,0,0,0,0.4912,0.4931,0.5104,0.5034,0.5057,0.5139,0.5179,0.5193,0.5223,0.5308,0.5323,0.5262,0.539,0.5408,0.547,0.548,0.5482,0.5487,0.5635,0.5636,0.5636,0.5586,0,0,0,0,0,0,0.4905,0.4929,0.4945,0.5033,0.5061,0.5154,0.5179,0.5196,0.5234,0.5239,0.5327,0.5341,0.5392,0.546,0.5476,0.5488,0.5492,0.5635,0.5636,0.5636,0.5587,0.5584,0.5582,0,0,0,0,0,0.4897,0.4925,0.4945,0.4965,0.5082,0.5154,0.517,0.5226,0.5234,0.5252,0.5306,0.5339,0.5476,0.5466,0.5485,0.5499,0.5635,0.5635,0.5636,0.5588,0.5585,0.5582,0,0,0,0,0,0,0.4836,0.4937,0.4961,0.5019,0.5077,0.5166,0.5189,0.5221,0.5279,0.5282,0.535,0.5369,0.5426,0.5469,0.5456,0.5545,0.5558,0.5563,0.5515,0.5513,0.5511,0.5499,0.5498,0,0,0,0,0,0.4829,0.4878,0.4964,0.5007,0.5035,0.5107,0.514,0.5179,0.5242,0.5268,0.5327,0.5388,0.5445,0.5482,0.5539,0.5593,0.5614,0.5613,0.561,0.5608,0.5611,0.5644,0.5645,0.5639,0.5639,0.5639,0,0,0.4815,0.4877,0.4904,0.4996,0.5046,0.5096,0.5127,0.5179,0.5217,0.5276,0.5338,0.5384,0.5457,0.5515,0.5544,0.5553,0.5617,0.5609,0.5607,0.5611,0.5645,0.5646,0.5646,0.564,0.564,0.564,0,0,0.4816,0.4867,0.4908,0.4958,0.5033,0.5081,0.509,0.5175,0.5207,0.527,0.5316,0.5363,0.5459,0.551,0.5548,0.5568,0.5601,0.5585,0.5573,0.5605,0.5605,0.5606,0.5614,0.5616,0.5588,0.5588,0.5588,0,0.479,0.4866,0.4925,0.4975,0.5014,0.507,0.5112,0.5158,0.5247,0.5274,0.5282,0.5405,0.5458,0.553,0.5535,0.5564,0.5578,0.5575,0.56,0.5601,0.5603,0.5611,0.5614,0.5586,0.5586,0.5586,0.5586,0,0.4831,0.4883,0.4907,0.4992,0.5035,0.508,0.5147,0.5183,0.5218,0.5265,0.533,0.5395,0.5467,0.5487,0.5522,0.5564,0.5567,0.5587,0.5601,0.56,0.5609,0.5613,0.5582,0.5583,0.5584,0.5584,0,0,0.4797,0.4914,0.4922,0.4962,0.5049,0.5091,0.514,0.5209,0.5239,0.5299,0.5342,0.5423,0.5442,0.5486,0.5527,0.5554,0.5567,0.5571,0.5574,0.5568,0.5618,0.5603,0.5605,0.5589,0.559,0.559,0.5612,0,0.481,0.4898,0.4954,0.5021,0.507,0.5124,0.5166,0.5225,0.527,0.532,0.5371,0.5427,0.5448,0.5474,0.5504,0.5559,0.5578,0.5558,0.563,0.5632,0.561,0.561,0.5594,0.5611,0.5616,0.5617,0.5617,0,0.4837,0.4895,0.4967,0.5049,0.5072,0.5109,0.5178,0.5224,0.5292,0.5324,0.5372,0.5414,0.5468,0.5478,0.5554,0.554,0.5573,0.5604,0.5606,0.5615,0.5624,0.562,0.5618,0.5621,0.5623,0.5623,0.5622,0,0.4805,0.4902,0.4958,0.499,0.5087,0.5112,0.5154,0.5222,0.526,0.5321,0.5347,0.5412,0.5449,0.5499,0.5558,0.5559,0.5629,0.5643,0.5657,0.5656,0.567,0.5668,0.5674,0.569,0.569,0.569,0.569,0,0.4814,0.4856,0.4945,0.4979,0.5028,0.5092,0.5138,0.5185,0.5245,0.529,0.534,0.5381,0.5456,0.5507,0.5553,0.561,0.5626,0.5653,0.5665,0.5649,0.5646,0.5672,0.5672,0.569,0.569,0.569,0.569,0,0.4787,0.4848,0.4912,0.4999,0.5022,0.5054,0.5129,0.5165,0.5214,0.527,0.5287,0.5363,0.5425,0.5489,0.5573,0.5604,0.566,0.5676,0.5637,0.5643,0.5654,0.5652,0.5677,0.5684,0.5694,0.5694,0.5694,0,0.4788,0.4822,0.4912,0.4946,0.4986,0.504,0.5079,0.5143,0.5183,0.5263,0.5289,0.5355,0.5411,0.5509,0.5572,0.5637,0.5656,0.566,0.5666,0.5649,0.5657,0.5654,0.5658,0.5658,0.5657,0.5657,0.5657,0,0.4785,0.4814,0.4869,0.4934,0.498,0.5035,0.5092,0.5117,0.5192,0.5234,0.5298,0.5342,0.5428,0.5493,0.5566,0.561,0.5646,0.5654,0.5661,0.5645,0.5621,0.5635,0.5631,0.5653,0.5654,0.5654,0.5654,0.5654,0.4773,0.4805,0.4874,0.4934,0.4984,0.5036,0.5074,0.5127,0.5181,0.5256,0.5291,0.5355,0.5424,0.5525,0.5569,0.5621,0.5631,0.564,0.5643,0.5644,0.564,0.5612,0.5634,0.5634,0.5634,0.5635,0.5635,0,0.4772,0.4819,0.4874,0.4952,0.4999,0.5028,0.5093,0.5131,0.5187,0.5247,0.5301,0.5375,0.5439,0.5508,0.5576,0.5604,0.5623,0.562,0.5619,0.5629,0.5627,0.5615,0.5604,0.5604,0.5604,0.5604,0.5604,0.5604,0.4777,0.4834,0.4871,0.4954,0.5001,0.5064,0.5099,0.5148,0.5196,0.5276,0.5329,0.5374,0.5438,0.5511,0.5571,0.559,0.5613,0.5605,0.5629,0.5626,0.5629,0.5631,0.5619,0.561,0.561,0.5626,0.5626,0.5626]},{"header":{"parameterUnit":"m.s-1","parameterCategory":1,"la1":30.2991,"la2":30.254,"lo1":-89.0895,"lo2":-89.0444,"dy":0.0017,"dx":0.0017,"nx":28,"ny":28,"refTime":"2025-03-10T03:00:00:Z","depth":0,"parameterNumber":3,"parameterNumberName":"V-component_of_WINDS"},"data":[0,0,0,0,0,0,0,0,0,0,0,0,0,0,0,0,0,0,0,0,0,0,0,0,0,0,0,0,0,0,0,0,0,0,0,0,0,0,0,0,0,0,0,0,0,0,0,0,0,0,0,0,0,0,0,0,0,0,3.3493,3.3493,0,3.3523,3.3523,3.3523,3.3503,3.3502,3.3501,3.35,3.3526,3.3528,3.3529,0,0,0,0,0,0,0,0,0,0,0,0,0,3.3414,3.3416,3.3493,3.3493,3.3494,3.3523,3.3523,3.3523,3.3503,3.3502,3.3501,3.35,3.3526,3.3527,3.3529,0,0,0,0,0,0,0,0,0,0,0,0,0,3.3446,3.3416,3.3493,3.3487,3.3487,3.3522,3.3523,3.3523,3.3503,3.3502,3.35,3.3499,3.3525,3.3527,3.353,3.3571,0,0,3.3537,3.3538,0,0,0,0,0,0,0,0,3.3445,3.3449,3.3487,3.3487,3.3487,3.3508,3.3505,3.3539,3.3503,3.3497,3.35,3.3498,3.3521,3.3523,3.3532,3.3573,3.3574,3.3537,3.3538,3.3539,3.354,0,0,0,0,0,0,0,3.3442,3.3448,3.3504,3.3488,3.3488,3.3481,3.3485,3.3511,3.3516,3.3497,3.3496,3.35,3.352,3.353,3.3532,3.3574,3.3537,3.3539,3.354,3.3541,3.3651,3.3652,0,0,0,0,0,0,3.3441,3.3446,3.3504,3.3505,3.3462,3.3484,3.3487,3.3502,3.3516,3.3516,3.3501,3.3499,3.3526,3.353,3.3533,3.3584,3.3539,3.3541,3.3543,3.3649,3.3651,3.3653,0,0,0,0,0,0,3.344,3.3447,3.3502,3.3475,3.3482,3.3487,3.3504,3.3504,3.3513,3.3519,3.3519,3.351,3.3525,3.353,3.3562,3.3584,3.3543,3.3545,3.3648,3.365,3.3652,3.3684,0,0,0,0,0,0,3.3438,3.3446,3.3463,3.3476,3.3484,3.3532,3.3505,3.3505,3.3518,3.3515,3.3527,3.3528,3.3525,3.3559,3.3565,3.3587,3.3546,3.3646,3.3649,3.3651,3.3681,3.3687,3.3693,0,0,0,0,0,3.3435,3.347,3.3464,3.3471,3.3505,3.3534,3.3538,3.3535,3.3519,3.3536,3.3539,3.3527,3.3581,3.3563,3.3569,3.3592,3.3644,3.3648,3.3651,3.3679,3.3686,3.3692,0,0,0,0,0,0,3.3458,3.3472,3.3465,3.3506,3.3519,3.353,3.3551,3.3543,3.356,3.3556,3.3551,3.3554,3.3588,3.3593,3.3572,3.3633,3.361,3.3615,3.3629,3.3636,3.3641,3.364,3.3548,0,0,0,0,0,3.3468,3.3491,3.3501,3.3536,3.3543,3.3546,3.3558,3.3555,3.3568,3.3573,3.3579,3.3591,3.361,3.3623,3.3641,3.3682,3.3684,3.37,3.3706,3.3711,3.3715,3.3737,3.3745,3.3664,3.3664,3.3664,0,0,3.3488,3.3499,3.3514,3.3541,3.3551,3.3575,3.3551,3.3576,3.3593,3.3576,3.3608,3.3613,3.3625,3.3662,3.3679,3.3667,3.3738,3.3715,3.3719,3.372,3.3741,3.3749,3.3756,3.3666,3.3666,3.3666,0,0,3.3538,3.3548,3.3579,3.359,3.3605,3.3607,3.3614,3.3627,3.363,3.3662,3.365,3.3669,3.3703,3.3713,3.3722,3.3776,3.3765,3.3781,3.3811,3.3833,3.3839,3.3845,3.3864,3.3871,3.3786,3.3786,3.3786,0,3.3561,3.3598,3.3595,3.3623,3.3635,3.3622,3.3652,3.3662,3.3682,3.369,3.3678,3.372,3.3727,3.3767,3.378,3.3788,3.3795,3.378,3.3839,3.3844,3.3849,3.3868,3.3875,3.3788,3.3787,3.3787,3.3787,0,3.3626,3.3651,3.3673,3.3696,3.371,3.3738,3.3739,3.3754,3.375,3.3752,3.3785,3.3793,3.3813,3.3822,3.3817,3.3861,3.3853,3.384,3.3816,3.3859,3.3877,3.3884,3.379,3.379,3.3789,3.3789,0,0,3.3691,3.3712,3.372,3.373,3.3747,3.3766,3.3793,3.3814,3.3827,3.3841,3.3864,3.3893,3.388,3.3891,3.3887,3.3906,3.3948,3.389,3.389,3.3901,3.3997,3.4008,3.4017,3.3941,3.3943,3.3944,3.3997,0,3.3742,3.3792,3.3791,3.3837,3.386,3.3848,3.3872,3.3884,3.3887,3.3906,3.3909,3.393,3.3912,3.3918,3.3936,3.3939,3.3968,3.3935,3.3962,3.3963,3.396,3.4026,3.4037,3.4087,3.4003,3.4004,3.4005,0,3.3809,3.3828,3.3877,3.389,3.39,3.3922,3.3941,3.396,3.3973,3.3973,3.3986,3.3979,3.4005,3.3981,3.4018,3.3996,3.4006,3.4009,3.4011,3.4014,3.3987,3.4031,3.4103,3.411,3.4016,3.4015,3.4014,0,3.3853,3.3889,3.3924,3.3933,3.3949,3.3965,3.3972,3.3984,3.3997,3.4013,3.4021,3.404,3.405,3.4064,3.4062,3.4044,3.4099,3.4075,3.41,3.41,3.4113,3.4112,3.4188,3.4118,3.4118,3.4118,3.4118,0,3.3911,3.3941,3.3944,3.3965,3.3999,3.3996,3.4029,3.4034,3.4045,3.4066,3.4056,3.4075,3.4071,3.409,3.4088,3.4119,3.4123,3.4124,3.4124,3.4126,3.4126,3.4133,3.413,3.412,3.412,3.4119,3.4119,0,3.3966,3.3969,3.4006,3.4019,3.4023,3.4047,3.4057,3.4077,3.4079,3.4106,3.4112,3.4115,3.4137,3.4136,3.4161,3.416,3.4198,3.4193,3.4194,3.4193,3.422,3.4217,3.4303,3.4314,3.4237,3.4237,3.4238,0,3.4003,3.4027,3.4043,3.4057,3.4066,3.4089,3.4103,3.41,3.4115,3.4131,3.4149,3.417,3.4188,3.4223,3.4227,3.4246,3.4241,3.427,3.4244,3.4246,3.4243,3.4242,3.4244,3.4275,3.4276,3.4277,3.4278,0,3.4069,3.407,3.4091,3.4112,3.4129,3.4146,3.4161,3.4173,3.4172,3.4188,3.4212,3.4225,3.4251,3.4273,3.4291,3.4297,3.4287,3.4286,3.4293,3.4296,3.4296,3.4297,3.4209,3.4284,3.4283,3.4283,3.4282,3.4282,3.4117,3.4138,3.4153,3.4176,3.4188,3.4202,3.4222,3.4227,3.4247,3.4269,3.4266,3.4292,3.4304,3.4328,3.4336,3.4355,3.4345,3.4355,3.4358,3.4361,3.4364,3.4292,3.4358,3.4358,3.4358,3.4358,3.4358,0,3.4183,3.4193,3.4214,3.4237,3.4255,3.4246,3.4262,3.4278,3.4302,3.4314,3.4332,3.4359,3.438,3.4385,3.4405,3.442,3.4416,3.4425,3.4424,3.4426,3.4372,3.4364,3.4428,3.4428,3.4428,3.4428,3.4428,3.4428,3.422,3.4255,3.4257,3.4297,3.4306,3.4333,3.4343,3.4356,3.4367,3.4398,3.4416,3.442,3.4429,3.445,3.4468,3.4469,3.4477,3.4488,3.4488,3.4437,3.443,3.4423,3.4416,3.449,3.449,3.454,3.4541,3.4541]}]]